User: anonymous   Login
Location: Hartman Creek State Park
(44.3257°N, 89.2134°W)
Time: 14:37:01
(UTC-06:00)
Language:

Terra - Orbit

View from above orbital plane
View from above orbital plane
View from above satellite
View from above satellite

Ground track
Ground track

The orbit data is extracted from the following two-line orbital elements,

1 25994U 99068A   17058.33352919 -.00000375  00000-0 -73099-4 0  9996
2 25994  98.2179 134.8965 0001417  90.8255 269.3151 14.57104074914672
Epoch (UTC): 27 February 2017 08:00:16
Eccentricity: 0.0001417
inclination: 98.2179°
perigee height: 701 km
apogee height: 703 km
right ascension of ascending node: 134.8965°
argument of perigee: 90.8255°
revolutions per day: 14.57104074
mean anomaly at epoch: 269.3151°
orbit number at epoch: 91467

The dashed part of the orbit path shows where the satellite is in the earth's shadow,  

DLR